STARLINK-31945 (59870 NORAD) Tracking and Keplerian Element Data

This shows tracking and keplerian element data for the satellite.

Feedback or suggestion? Click here.




ElementValue
Catalog59870
NameSTARLINK-31945
Epoch Orbit295
Epoch Day160.16667824
Epoch Year2024
RAAN328.0022
Inclination43.0017
Eccentricity0.0001023
Argument of Perigee300.1557
Mean Anonmoly179.7969
Mean Motion15.74047109
Decay Rate-0.02284779
L11 59870U 24098N 24160.16667824 -.02284779 00000+0 -17933-1 0 9999
L22 59870 43.0017 328.0022 0001023 300.1557 179.7969 15.74047109 2952



Live tracking and technical data element details for STARLINK-31945 (NORAD 59870). STARLINK-31945 can be tracked NOW for your location showing map with azimuth and elevation plus other details from your city location.







IsCatalogInMostPopularTable: catalog: 59870, numindb: 7
Update: records affected: 1



GetName: 59870 STARLINK-31945

Hit Count: updated at: Thu, 25 Jul 2024 01:12:39 GMT